Time,TemperatureF,DewpointF,PressureIn,WindDirection,WindDirectionDegrees,WindSpeedMPH,WindSpeedGustMPH,Humidity,HourlyPrecipIn,Conditions,Clouds,dailyrainin,SoftwareType,DateUTC
2013-01-13 00:00:00,40.6,39.3,29.84,ENE,78,19.0,20.0,95,0.10,,,0.00,Wunderground v.1.15,2013-01-13 05:00:00,
2013-01-13 00:05:00,40.3,38.7,29.84,East,92,20.0,20.0,94,0.06,,,0.00,Wunderground v.1.15,2013-01-13 05:05:00,
2013-01-13 00:10:00,40.1,38.5,29.85,East,91,19.0,21.0,94,0.04,,,0.00,Wunderground v.1.15,2013-01-13 05:10:00,
2013-01-13 00:15:00,39.8,38.2,29.85,East,84,19.0,21.0,94,0.04,,,0.01,Wunderground v.1.15,2013-01-13 05:15:00,
2013-01-13 00:20:00,39.7,38.1,29.85,East,89,18.0,18.0,94,0.04,,,0.01,Wunderground v.1.15,2013-01-13 05:20:00,
2013-01-13 00:25:00,39.5,37.9,29.85,East,99,17.0,18.0,94,0.04,,,0.01,Wunderground v.1.15,2013-01-13 05:25:00,
2013-01-13 00:35:00,39.2,37.6,29.84,ESE,111,14.0,18.0,94,0.00,,,0.02,Wunderground v.1.15,2013-01-13 05:35:00,
2013-01-13 00:45:00,38.9,37.6,29.84,ESE,112,12.0,15.0,95,0.07,,,0.03,Wunderground v.1.15,2013-01-13 05:45:00,
2013-01-13 00:50:00,38.8,37.2,29.85,East,96,13.0,17.0,94,0.09,,,0.04,Wunderground v.1.15,2013-01-13 05:50:00,
2013-01-13 00:55:00,38.7,37.1,29.86,East,97,14.0,17.0,94,0.20,,,0.05,Wunderground v.1.15,2013-01-13 05:55:00,
2013-01-13 01:00:00,38.6,37.0,29.85,East,87,14.0,14.0,94,0.22,,,0.07,Wunderground v.1.15,2013-01-13 06:00:00,
2013-01-13 01:10:00,38.3,37.0,29.84,East,91,13.0,21.0,95,0.14,,,0.10,Wunderground v.1.15,2013-01-13 06:10:00,
2013-01-13 01:15:00,38.1,36.8,29.85,East,94,15.0,21.0,95,0.18,,,0.12,Wunderground v.1.15,2013-01-13 06:15:00,
2013-01-13 01:20:00,38.0,36.7,29.84,ESE,112,14.0,14.0,95,0.27,,,0.14,Wunderground v.1.15,2013-01-13 06:20:00,
2013-01-13 01:25:00,37.9,36.6,29.86,East,94,13.0,17.0,95,0.36,,,0.16,Wunderground v.1.15,2013-01-13 06:25:00,
2013-01-13 01:30:00,37.8,36.5,29.85,ENE,67,14.0,14.0,95,0.22,,,0.19,Wunderground v.1.15,2013-01-13 06:30:00,
2013-01-13 01:40:00,37.6,36.3,29.84,ENE,77,13.0,13.0,95,0.18,,,0.22,Wunderground v.1.15,2013-01-13 06:40:00,
2013-01-13 01:50:00,37.5,36.2,29.87,NE,53,10.0,10.0,95,0.13,,,0.25,Wunderground v.1.15,2013-01-13 06:50:00,
2013-01-13 01:55:00,37.6,36.3,29.85,ENE,78,12.0,20.0,95,0.21,,,0.27,Wunderground v.1.15,2013-01-13 06:55:00,
2013-01-13 02:00:00,37.5,36.2,29.85,East,96,14.0,14.0,95,0.18,,,0.28,Wunderground v.1.15,2013-01-13 07:00:00,
2013-01-13 02:05:00,37.5,36.5,29.85,East,96,16.0,16.0,96,0.13,,,0.30,Wunderground v.1.15,2013-01-13 07:05:00,
2013-01-13 02:10:00,37.5,36.5,29.85,East,92,14.0,14.0,96,0.15,,,0.31,Wunderground v.1.15,2013-01-13 07:10:00,
2013-01-13 02:20:00,37.4,36.4,29.84,East,101,11.0,11.0,96,0.16,,,0.34,Wunderground v.1.15,2013-01-13 07:20:00,
2013-01-13 02:25:00,37.4,36.4,29.84,ESE,115,9.0,17.0,96,0.13,,,0.35,Wunderground v.1.15,2013-01-13 07:25:00,
2013-01-13 02:30:00,37.3,36.3,29.84,SE,127,9.0,17.0,96,0.13,,,0.36,Wunderground v.1.15,2013-01-13 07:30:00,
2013-01-13 02:35:00,37.3,36.3,29.82,ESE,103,9.0,17.0,96,0.11,,,0.37,Wunderground v.1.15,2013-01-13 07:35:00,
2013-01-13 02:45:00,37.3,36.3,29.84,East,85,11.0,17.0,96,0.07,,,0.39,Wunderground v.1.15,2013-01-13 07:45:00,
2013-01-13 02:55:00,37.3,36.3,29.87,ENE,78,12.0,17.0,96,0.11,,,0.40,Wunderground v.1.15,2013-01-13 07:55:00,
2013-01-13 03:00:00,37.3,36.3,29.87,East,79,11.0,19.0,96,0.20,,,0.42,Wunderground v.1.15,2013-01-13 08:00:00,
2013-01-13 03:10:00,37.2,35.9,29.88,ENE,57,11.0,11.0,95,0.09,,,0.44,Wunderground v.1.15,2013-01-13 08:10:00,
2013-01-13 03:15:00,37.1,35.8,29.87,ESE,108,11.0,11.0,95,0.09,,,0.44,Wunderground v.1.15,2013-01-13 08:15:00,
2013-01-13 03:25:00,37.0,35.7,29.87,East,95,17.0,22.0,95,0.06,,,0.45,Wunderground v.1.15,2013-01-13 08:25:00,
2013-01-13 03:30:00,37.0,35.7,29.88,East,84,18.0,18.0,95,0.06,,,0.45,Wunderground v.1.15,2013-01-13 08:30:00,
2013-01-13 03:35:00,37.0,35.7,29.87,East,88,17.0,19.0,95,0.04,,,0.45,Wunderground v.1.15,2013-01-13 08:35:00,
2013-01-13 03:45:00,36.9,35.6,29.86,East,86,18.0,19.0,95,0.00,,,0.45,Wunderground v.1.15,2013-01-13 08:45:00,
2013-01-13 03:50:00,36.9,35.1,29.87,East,93,20.0,20.0,93,0.00,,,0.45,Wunderground v.1.15,2013-01-13 08:50:00,
2013-01-13 04:00:00,36.8,34.7,29.86,East,91,17.0,17.0,92,0.00,,,0.45,Wunderground v.1.15,2013-01-13 09:00:00,
2013-01-13 04:05:00,36.7,34.3,29.87,ESE,112,17.0,19.0,91,0.00,,,0.45,Wunderground v.1.15,2013-01-13 09:05:00,
2013-01-13 04:10:00,36.7,34.3,29.87,ENE,71,18.0,21.0,91,0.00,,,0.45,Wunderground v.1.15,2013-01-13 09:10:00,
2013-01-13 04:15:00,36.7,34.3,29.88,East,86,18.0,21.0,91,0.00,,,0.45,Wunderground v.1.15,2013-01-13 09:15:00,
2013-01-13 04:20:00,36.7,34.3,29.89,East,91,15.0,22.0,91,0.00,,,0.45,Wunderground v.1.15,2013-01-13 09:20:00,
2013-01-13 04:25:00,36.7,34.3,29.88,East,96,15.0,22.0,91,0.00,,,0.45,Wunderground v.1.15,2013-01-13 09:25:00,
2013-01-13 04:35:00,36.7,34.3,29.88,East,91,15.0,20.0,91,0.00,,,0.45,Wunderground v.1.15,2013-01-13 09:35:00,
2013-01-13 04:40:00,36.7,34.3,29.89,East,79,15.0,19.0,91,0.00,,,0.45,Wunderground v.1.15,2013-01-13 09:40:00,
2013-01-13 04:50:00,36.6,34.2,29.89,East,91,14.0,19.0,91,0.00,,,0.45,Wunderground v.1.15,2013-01-13 09:50:00,
2013-01-13 04:55:00,36.6,34.2,29.89,East,80,14.0,19.0,91,0.00,,,0.45,Wunderground v.1.15,2013-01-13 09:55:00,
2013-01-13 05:00:00,36.5,34.4,29.88,East,89,14.0,14.0,92,0.00,,,0.45,Wunderground v.1.15,2013-01-13 10:00:00,
2013-01-13 05:10:00,36.3,34.5,29.87,East,95,12.0,19.0,93,0.00,,,0.45,Wunderground v.1.15,2013-01-13 10:10:00,
2013-01-13 05:15:00,36.2,34.6,29.88,East,96,12.0,19.0,94,0.00,,,0.45,Wunderground v.1.15,2013-01-13 10:15:00,
2013-01-13 05:20:00,36.1,34.5,29.86,East,91,10.0,19.0,94,0.00,,,0.45,Wunderground v.1.15,2013-01-13 10:20:00,
2013-01-13 05:25:00,36.0,34.4,29.87,East,93,9.0,19.0,94,0.00,,,0.45,Wunderground v.1.15,2013-01-13 10:25:00,
2013-01-13 05:30:00,35.9,34.6,29.85,ESE,110,10.0,10.0,95,0.00,,,0.45,Wunderground v.1.15,2013-01-13 10:30:00,
2013-01-13 05:40:00,35.8,34.5,29.87,East,89,9.0,19.0,95,0.00,,,0.45,Wunderground v.1.15,2013-01-13 10:40:00,
2013-01-13 05:45:00,35.9,34.9,29.88,East,86,9.0,19.0,96,0.00,,,0.45,Wunderground v.1.15,2013-01-13 10:45:00,
2013-01-13 05:50:00,35.8,34.5,29.88,ENE,72,9.0,9.0,95,0.00,,,0.45,Wunderground v.1.15,2013-01-13 10:50:00,
2013-01-13 06:00:00,35.8,34.8,29.88,East,86,10.0,10.0,96,0.00,,,0.45,Wunderground v.1.15,2013-01-13 11:00:00,
2013-01-13 06:05:00,35.8,34.8,29.87,ESE,110,9.0,19.0,96,0.00,,,0.45,Wunderground v.1.15,2013-01-13 11:05:00,
2013-01-13 06:15:00,35.8,34.8,29.89,East,86,8.0,19.0,96,0.00,,,0.45,Wunderground v.1.15,2013-01-13 11:15:00,
2013-01-13 06:20:00,35.8,34.8,29.89,East,86,8.0,19.0,96,0.00,,,0.45,Wunderground v.1.15,2013-01-13 11:20:00,
2013-01-13 06:25:00,35.9,34.9,29.89,ESE,103,9.0,19.0,96,0.00,,,0.45,Wunderground v.1.15,2013-01-13 11:25:00,
2013-01-13 06:30:00,35.9,34.9,29.89,ESE,108,8.0,8.0,96,0.00,,,0.45,Wunderground v.1.15,2013-01-13 11:30:00,
2013-01-13 06:35:00,35.9,34.9,29.88,East,98,8.0,19.0,96,0.00,,,0.45,Wunderground v.1.15,2013-01-13 11:35:00,
2013-01-13 06:40:00,35.9,34.9,29.89,East,96,8.0,8.0,96,0.00,,,0.45,Wunderground v.1.15,2013-01-13 11:40:00,
2013-01-13 06:50:00,36.0,34.7,29.90,East,82,6.0,6.0,95,0.00,,,0.45,Wunderground v.1.15,2013-01-13 11:50:00,
2013-01-13 06:55:00,36.0,34.7,29.91,East,82,5.0,19.0,95,0.00,,,0.45,Wunderground v.1.15,2013-01-13 11:55:00,
2013-01-13 07:05:00,36.1,34.8,29.92,NE,46,2.0,4.0,95,0.00,,,0.45,Wunderground v.1.15,2013-01-13 12:05:00,
2013-01-13 07:10:00,36.1,34.8,29.92,NE,53,1.0,2.0,95,0.00,,,0.45,Wunderground v.1.15,2013-01-13 12:10:00,
2013-01-13 07:15:00,36.1,34.8,29.93,ENE,65,1.0,2.0,95,0.00,,,0.45,Wunderground v.1.15,2013-01-13 12:15:00,
2013-01-13 07:25:00,36.2,34.9,29.94,NE,49,2.0,3.0,95,0.00,,,0.45,Wunderground v.1.15,2013-01-13 12:25:00,
2013-01-13 07:30:00,36.2,35.2,29.94,ENE,57,2.0,2.0,96,0.00,,,0.45,Wunderground v.1.15,2013-01-13 12:30:00,
2013-01-13 07:35:00,36.2,35.2,29.96,NNE,29,3.0,6.0,96,0.00,,,0.45,Wunderground v.1.15,2013-01-13 12:35:00,
2013-01-13 07:40:00,36.1,35.1,29.96,ESE,104,5.0,14.0,96,0.00,,,0.45,Wunderground v.1.15,2013-01-13 12:40:00,
2013-01-13 07:45:00,36.1,35.1,29.96,NNE,15,6.0,14.0,96,0.00,,,0.45,Wunderground v.1.15,2013-01-13 12:45:00,
2013-01-13 07:55:00,35.9,34.9,29.96,ENE,58,5.0,7.0,96,0.00,,,0.45,Wunderground v.1.15,2013-01-13 12:55:00,
2013-01-13 08:05:00,35.8,35.0,29.94,ENE,75,4.0,14.0,97,0.00,,,0.45,Wunderground v.1.15,2013-01-13 13:05:00,
2013-01-13 08:10:00,35.8,35.0,29.94,ENE,68,2.0,2.0,97,0.00,,,0.45,Wunderground v.1.15,2013-01-13 13:10:00,
2013-01-13 08:15:00,35.7,34.9,29.94,NE,51,1.0,14.0,97,0.00,,,0.45,Wunderground v.1.15,2013-01-13 13:15:00,
2013-01-13 08:20:00,35.7,34.9,29.95,NE,37,2.0,14.0,97,0.00,,,0.45,Wunderground v.1.15,2013-01-13 13:20:00,
2013-01-13 08:30:00,35.7,34.9,29.96,East,89,3.0,14.0,97,0.00,,,0.45,Wunderground v.1.15,2013-01-13 13:30:00,
2013-01-13 08:35:00,35.6,34.8,29.95,East,84,2.0,14.0,97,0.00,,,0.45,Wunderground v.1.15,2013-01-13 13:35:00,
2013-01-13 08:40:00,35.6,34.8,29.96,East,80,2.0,14.0,97,0.00,,,0.45,Wunderground v.1.15,2013-01-13 13:40:00,
2013-01-13 08:45:00,35.6,34.8,29.95,ENE,77,2.0,14.0,97,0.00,,,0.45,Wunderground v.1.15,2013-01-13 13:45:00,
2013-01-13 08:50:00,35.5,34.7,29.96,ENE,77,1.0,1.0,97,0.00,,,0.45,Wunderground v.1.15,2013-01-13 13:50:00,
2013-01-13 09:00:00,35.6,34.8,29.95,ESE,113,0.0,14.0,97,0.00,,,0.45,Wunderground v.1.15,2013-01-13 14:00:00,
2013-01-13 09:10:00,35.5,34.7,29.96,ENE,69,1.0,14.0,97,0.00,,,0.45,Wunderground v.1.15,2013-01-13 14:10:00,
2013-01-13 09:15:00,35.6,34.8,29.97,NE,37,1.0,14.0,97,0.00,,,0.45,Wunderground v.1.15,2013-01-13 14:15:00,
2013-01-13 09:20:00,35.6,34.8,29.97,NNE,32,1.0,14.0,97,0.00,,,0.45,Wunderground v.1.15,2013-01-13 14:20:00,
2013-01-13 09:25:00,35.7,34.9,29.97,ENE,74,1.0,14.0,97,0.00,,,0.45,Wunderground v.1.15,2013-01-13 14:25:00,
2013-01-13 09:30:00,35.7,34.9,29.97,ENE,58,0.0,14.0,97,0.00,,,0.45,Wunderground v.1.15,2013-01-13 14:30:00,
2013-01-13 09:35:00,35.7,34.9,29.98,ENE,57,1.0,14.0,97,0.00,,,0.45,Wunderground v.1.15,2013-01-13 14:35:00,
2013-01-13 09:40:00,35.7,34.9,29.99,ENE,67,2.0,2.0,97,0.00,,,0.45,Wunderground v.1.15,2013-01-13 14:40:00,
2013-01-13 09:45:00,35.7,34.9,29.98,East,97,1.0,14.0,97,0.00,,,0.45,Wunderground v.1.15,2013-01-13 14:45:00,
2013-01-13 09:50:00,35.6,34.8,29.97,NE,41,1.0,14.0,97,0.00,,,0.45,Wunderground v.1.15,2013-01-13 14:50:00,
2013-01-13 09:55:00,35.6,34.8,29.98,East,87,2.0,14.0,97,0.00,,,0.45,Wunderground v.1.15,2013-01-13 14:55:00,
2013-01-13 10:05:00,35.7,34.9,29.99,East,91,1.0,1.0,97,0.00,,,0.45,Wunderground v.1.15,2013-01-13 15:05:00,
2013-01-13 10:10:00,35.7,34.9,29.99,ESE,115,1.0,1.0,97,0.00,,,0.45,Wunderground v.1.15,2013-01-13 15:10:00,
2013-01-13 10:15:00,35.7,34.9,30.00,ENE,65,1.0,2.0,97,0.00,,,0.45,Wunderground v.1.15,2013-01-13 15:15:00,
2013-01-13 10:20:00,35.7,34.9,29.99,North,353,2.0,2.0,97,0.00,,,0.45,Wunderground v.1.15,2013-01-13 15:20:00,
2013-01-13 10:25:00,35.7,34.9,29.98,ENE,72,2.0,2.0,97,0.00,,,0.45,Wunderground v.1.15,2013-01-13 15:25:00,
2013-01-13 10:30:00,35.7,34.9,29.98,East,84,2.0,2.0,97,0.00,,,0.45,Wunderground v.1.15,2013-01-13 15:30:00,
2013-01-13 10:35:00,35.7,34.9,29.97,East,79,2.0,7.0,97,0.00,,,0.45,Wunderground v.1.15,2013-01-13 15:35:00,
2013-01-13 10:45:00,35.8,35.0,29.99,ENE,75,2.0,7.0,97,0.00,,,0.45,Wunderground v.1.15,2013-01-13 15:45:00,
2013-01-13 10:50:00,35.8,35.0,29.98,East,97,1.0,1.0,97,0.00,,,0.45,Wunderground v.1.15,2013-01-13 15:50:00,
2013-01-13 11:00:00,35.7,34.9,29.97,East,82,5.0,9.0,97,0.00,,,0.45,Wunderground v.1.15,2013-01-13 16:00:00,
2013-01-13 11:05:00,35.6,34.8,29.96,East,87,7.0,9.0,97,0.00,,,0.45,Wunderground v.1.15,2013-01-13 16:05:00,
2013-01-13 11:10:00,35.7,34.9,29.97,East,96,7.0,9.0,97,0.00,,,0.45,Wunderground v.1.15,2013-01-13 16:10:00,
2013-01-13 11:20:00,35.9,35.1,30.00,ENE,64,2.0,2.0,97,0.00,,,0.45,Wunderground v.1.15,2013-01-13 16:20:00,
2013-01-13 11:25:00,35.9,35.1,30.00,East,98,1.0,7.0,97,0.00,,,0.45,Wunderground v.1.15,2013-01-13 16:25:00,
2013-01-13 11:30:00,36.0,35.2,30.00,East,93,1.0,1.0,97,0.00,,,0.45,Wunderground v.1.15,2013-01-13 16:30:00,
2013-01-13 11:35:00,36.1,35.3,30.00,ENE,63,1.0,7.0,97,0.00,,,0.45,Wunderground v.1.15,2013-01-13 16:35:00,
2013-01-13 11:40:00,36.1,35.3,30.01,ENE,70,1.0,7.0,97,0.00,,,0.45,Wunderground v.1.15,2013-01-13 16:40:00,
2013-01-13 11:45:00,36.3,35.5,30.01,East,93,1.0,7.0,97,0.00,,,0.45,Wunderground v.1.15,2013-01-13 16:45:00,
2013-01-13 11:55:00,36.4,35.6,30.01,NNE,16,2.0,7.0,97,0.00,,,0.45,Wunderground v.1.15,2013-01-13 16:55:00,
2013-01-13 12:05:00,36.5,35.5,30.01,East,82,2.0,2.0,96,0.00,,,0.45,Wunderground v.1.15,2013-01-13 17:05:00,
2013-01-13 12:10:00,36.5,35.5,30.00,East,82,2.0,2.0,96,0.00,,,0.45,Wunderground v.1.15,2013-01-13 17:10:00,
2013-01-13 12:15:00,36.6,35.6,29.99,East,89,1.0,2.0,96,0.00,,,0.46,Wunderground v.1.15,2013-01-13 17:15:00,
2013-01-13 12:20:00,36.6,35.6,29.97,ENE,65,1.0,1.0,96,0.00,,,0.46,Wunderground v.1.15,2013-01-13 17:20:00,
2013-01-13 12:30:00,36.0,35.0,29.96,ENE,57,1.0,2.0,96,0.00,,,0.46,Wunderground v.1.15,2013-01-13 17:30:00,
2013-01-13 12:35:00,36.0,35.0,29.96,NNE,30,1.0,5.0,96,0.00,,,0.46,Wunderground v.1.15,2013-01-13 17:35:00,
2013-01-13 12:40:00,35.9,34.9,29.97,ENE,73,1.0,12.0,96,0.00,,,0.46,Wunderground v.1.15,2013-01-13 17:40:00,
2013-01-13 12:45:00,35.9,34.9,29.97,NE,50,2.0,12.0,96,0.00,,,0.46,Wunderground v.1.15,2013-01-13 17:45:00,
2013-01-13 12:55:00,35.8,34.8,29.94,ENE,68,1.0,12.0,96,0.00,,,0.46,Wunderground v.1.15,2013-01-13 17:55:00,
2013-01-13 13:05:00,35.7,34.7,29.94,ENE,75,1.0,12.0,96,0.00,,,0.46,Wunderground v.1.15,2013-01-13 18:05:00,
2013-01-13 13:10:00,35.5,34.5,29.92,ENE,68,2.0,12.0,96,0.00,,,0.46,Wunderground v.1.15,2013-01-13 18:10:00,
2013-01-13 13:15:00,35.2,34.2,29.92,ENE,72,3.0,12.0,96,0.00,,,0.46,Wunderground v.1.15,2013-01-13 18:15:00,
2013-01-13 13:20:00,35.2,34.4,29.91,ENE,63,3.0,3.0,97,0.00,,,0.46,Wunderground v.1.15,2013-01-13 18:20:00,
2013-01-13 13:25:00,35.3,34.5,29.92,NE,47,3.0,12.0,97,0.00,,,0.46,Wunderground v.1.15,2013-01-13 18:25:00,
2013-01-13 13:30:00,35.3,34.5,29.92,ENE,78,2.0,12.0,97,0.00,,,0.46,Wunderground v.1.15,2013-01-13 18:30:00,
2013-01-13 13:35:00,35.3,34.5,29.92,North,349,1.0,12.0,97,0.00,,,0.46,Wunderground v.1.15,2013-01-13 18:35:00,
2013-01-13 13:40:00,35.1,34.3,29.92,NE,56,1.0,12.0,97,0.00,,,0.46,Wunderground v.1.15,2013-01-13 18:40:00,
2013-01-13 13:45:00,35.1,34.3,29.93,WNW,301,2.0,12.0,97,0.00,,,0.46,Wunderground v.1.15,2013-01-13 18:45:00,
2013-01-13 13:55:00,34.7,33.9,29.94,SE,136,3.0,3.0,97,0.00,,,0.46,Wunderground v.1.15,2013-01-13 18:55:00,
2013-01-13 14:00:00,34.5,33.7,29.95,ESE,104,3.0,3.0,97,0.00,,,0.46,Wunderground v.1.15,2013-01-13 19:00:00,
2013-01-13 14:10:00,34.3,33.5,29.97,WSW,248,2.0,2.0,97,0.00,,,0.47,Wunderground v.1.15,2013-01-13 19:10:00,
2013-01-13 14:15:00,34.1,33.3,29.98,East,86,3.0,8.0,97,0.23,,,0.49,Wunderground v.1.15,2013-01-13 19:15:00,
2013-01-13 14:20:00,33.9,33.1,29.99,East,101,3.0,3.0,97,0.23,,,0.51,Wunderground v.1.15,2013-01-13 19:20:00,
2013-01-13 14:25:00,33.8,33.0,29.99,ENE,67,3.0,3.0,97,0.26,,,0.53,Wunderground v.1.15,2013-01-13 19:25:00,
2013-01-13 14:30:00,33.5,32.7,30.01,ESE,114,3.0,3.0,97,0.21,,,0.55,Wunderground v.1.15,2013-01-13 19:30:00,
2013-01-13 14:35:00,33.4,32.6,30.00,ESE,105,2.0,8.0,97,0.27,,,0.57,Wunderground v.1.15,2013-01-13 19:35:00,
2013-01-13 14:45:00,32.7,31.7,30.00,NNE,27,3.0,14.0,96,0.11,,,0.59,Wunderground v.1.15,2013-01-13 19:45:00,
2013-01-13 14:55:00,32.4,31.4,30.00,East,83,4.0,8.0,96,0.16,,,0.62,Wunderground v.1.15,2013-01-13 19:55:00,
2013-01-13 15:00:00,32.3,31.3,30.01,ENE,63,3.0,8.0,96,0.14,,,0.63,Wunderground v.1.15,2013-01-13 20:00:00,
2013-01-13 15:05:00,32.2,31.2,30.01,ENE,72,3.0,8.0,96,0.19,,,0.64,Wunderground v.1.15,2013-01-13 20:05:00,
2013-01-13 15:10:00,32.1,31.1,30.00,ENE,67,4.0,8.0,96,0.21,,,0.66,Wunderground v.1.15,2013-01-13 20:10:00,
2013-01-13 15:20:00,32.0,31.0,30.01,ENE,57,4.0,8.0,96,0.07,,,0.67,Wunderground v.1.15,2013-01-13 20:20:00,
2013-01-13 15:25:00,31.8,30.8,30.00,East,85,6.0,11.0,96,0.07,,,0.68,Wunderground v.1.15,2013-01-13 20:25:00,
2013-01-13 15:30:00,31.8,30.8,30.01,ENE,58,7.0,7.0,96,0.06,,,0.68,Wunderground v.1.15,2013-01-13 20:30:00,
2013-01-13 15:35:00,31.8,30.8,30.02,East,81,6.0,8.0,96,0.04,,,0.68,Wunderground v.1.15,2013-01-13 20:35:00,
2013-01-13 15:40:00,32.0,31.0,30.03,ENE,58,2.0,8.0,96,0.04,,,0.69,Wunderground v.1.15,2013-01-13 20:40:00,
2013-01-13 15:50:00,32.0,31.0,30.04,East,82,1.0,8.0,96,0.06,,,0.70,Wunderground v.1.15,2013-01-13 20:50:00,
2013-01-13 16:00:00,32.0,31.0,30.03,ENE,72,2.0,4.0,96,0.04,,,0.70,Wunderground v.1.15,2013-01-13 21:00:00,
2013-01-13 16:10:00,31.8,30.5,30.02,ENE,61,3.0,3.0,95,0.00,,,0.70,Wunderground v.1.15,2013-01-13 21:10:00,
2013-01-13 16:15:00,31.8,30.5,30.04,East,101,3.0,3.0,95,0.00,,,0.70,Wunderground v.1.15,2013-01-13 21:15:00,
2013-01-13 16:25:00,31.8,30.5,30.03,ENE,68,1.0,2.0,95,0.00,,,0.70,Wunderground v.1.15,2013-01-13 21:25:00,
2013-01-13 16:30:00,31.8,30.5,30.03,ENE,72,1.0,2.0,95,0.00,,,0.70,Wunderground v.1.15,2013-01-13 21:30:00,
2013-01-13 16:35:00,31.7,30.4,30.03,ENE,77,1.0,4.0,95,0.00,,,0.70,Wunderground v.1.15,2013-01-13 21:35:00,
2013-01-13 16:40:00,31.7,30.4,30.03,ENE,72,2.0,2.0,95,0.00,,,0.70,Wunderground v.1.15,2013-01-13 21:40:00,
2013-01-13 16:50:00,31.6,30.3,30.04,East,83,1.0,1.0,95,0.00,,,0.70,Wunderground v.1.15,2013-01-13 21:50:00,
2013-01-13 17:00:00,31.6,30.3,30.03,East,93,0.0,15.0,95,0.00,,,0.70,Wunderground v.1.15,2013-01-13 22:00:00,
2013-01-13 17:05:00,31.5,30.2,30.03,East,80,0.0,15.0,95,0.00,,,0.70,Wunderground v.1.15,2013-01-13 22:05:00,
2013-01-13 17:10:00,31.6,30.6,30.02,East,81,0.0,15.0,96,0.00,,,0.70,Wunderground v.1.15,2013-01-13 22:10:00,
2013-01-13 17:15:00,31.6,30.6,30.03,ENE,61,0.0,15.0,96,0.00,,,0.70,Wunderground v.1.15,2013-01-13 22:15:00,
2013-01-13 17:20:00,31.5,30.5,30.02,East,93,0.0,15.0,96,0.00,,,0.70,Wunderground v.1.15,2013-01-13 22:20:00,
2013-01-13 17:25:00,31.4,30.4,30.03,ENE,70,1.0,15.0,96,0.00,,,0.70,Wunderground v.1.15,2013-01-13 22:25:00,
2013-01-13 17:35:00,31.3,30.3,30.05,ESE,108,1.0,2.0,96,0.00,,,0.70,Wunderground v.1.15,2013-01-13 22:35:00,
2013-01-13 17:40:00,31.2,30.2,30.06,NE,56,2.0,15.0,96,0.00,,,0.70,Wunderground v.1.15,2013-01-13 22:40:00,
2013-01-13 17:45:00,31.2,30.2,30.06,NNE,13,3.0,15.0,96,0.00,,,0.70,Wunderground v.1.15,2013-01-13 22:45:00,
2013-01-13 17:55:00,31.0,30.0,30.06,NE,54,5.0,15.0,96,0.00,,,0.70,Wunderground v.1.15,2013-01-13 22:55:00,
2013-01-13 18:00:00,31.0,30.0,30.07,NE,46,4.0,6.0,96,0.00,,,0.70,Wunderground v.1.15,2013-01-13 23:00:00,
2013-01-13 18:10:00,30.9,29.9,30.07,ENE,66,5.0,6.0,96,0.00,,,0.70,Wunderground v.1.15,2013-01-13 23:10:00,
2013-01-13 18:15:00,30.8,29.8,30.08,ENE,65,5.0,8.0,96,0.00,,,0.70,Wunderground v.1.15,2013-01-13 23:15:00,
2013-01-13 18:20:00,30.7,29.7,30.09,SW,235,5.0,10.0,96,0.00,,,0.70,Wunderground v.1.15,2013-01-13 23:20:00,
2013-01-13 18:25:00,30.6,29.6,30.09,NNE,18,6.0,10.0,96,0.00,,,0.70,Wunderground v.1.15,2013-01-13 23:25:00,
2013-01-13 18:30:00,30.5,29.5,30.09,NE,37,7.0,7.0,96,0.00,,,0.70,Wunderground v.1.15,2013-01-13 23:30:00,
2013-01-13 18:40:00,30.4,29.4,30.10,NNE,19,6.0,6.0,96,0.00,,,0.70,Wunderground v.1.15,2013-01-13 23:40:00,
2013-01-13 18:45:00,30.3,29.3,30.09,ENE,72,7.0,7.0,96,0.00,,,0.70,Wunderground v.1.15,2013-01-13 23:45:00,
2013-01-13 18:55:00,30.2,28.9,30.09,ENE,58,3.0,5.0,95,0.00,,,0.70,Wunderground v.1.15,2013-01-13 23:55:00,
2013-01-13 19:00:00,30.1,28.8,30.10,North,11,4.0,4.0,95,0.00,,,0.70,Wunderground v.1.15,2013-01-14 00:00:00,
2013-01-13 19:05:00,30.1,28.8,30.09,NE,34,5.0,5.0,95,0.00,,,0.70,Wunderground v.1.15,2013-01-14 00:05:00,
2013-01-13 19:15:00,29.9,28.6,30.10,NNW,340,4.0,6.0,95,0.00,,,0.70,Wunderground v.1.15,2013-01-14 00:15:00,
2013-01-13 19:20:00,29.7,28.2,30.11,NE,47,8.0,9.0,94,0.00,,,0.70,Wunderground v.1.15,2013-01-14 00:20:00,
2013-01-13 19:25:00,29.5,28.0,30.11,NE,34,10.0,11.0,94,0.00,,,0.70,Wunderground v.1.15,2013-01-14 00:25:00,
2013-01-13 19:30:00,29.3,27.5,30.11,NE,41,8.0,9.0,93,0.00,,,0.70,Wunderground v.1.15,2013-01-14 00:30:00,
2013-01-13 19:35:00,29.3,27.5,30.11,NNE,23,7.0,9.0,93,0.00,,,0.70,Wunderground v.1.15,2013-01-14 00:35:00,
2013-01-13 19:40:00,29.2,27.4,30.11,NE,41,6.0,10.0,93,0.00,,,0.70,Wunderground v.1.15,2013-01-14 00:40:00,
2013-01-13 19:45:00,29.1,27.3,30.12,ENE,68,6.0,10.0,93,0.00,,,0.70,Wunderground v.1.15,2013-01-14 00:45:00,
2013-01-13 19:50:00,29.1,27.3,30.12,NE,37,6.0,10.0,93,0.00,,,0.70,Wunderground v.1.15,2013-01-14 00:50:00,
2013-01-13 20:00:00,29.0,27.5,30.13,NNW,339,9.0,13.0,94,0.00,,,0.70,Wunderground v.1.15,2013-01-14 01:00:00,
2013-01-13 20:10:00,28.6,26.8,30.13,SE,146,12.0,12.0,93,0.00,,,0.70,Wunderground v.1.15,2013-01-14 01:10:00,
2013-01-13 20:15:00,28.3,26.5,30.14,NNW,343,12.0,23.0,93,0.00,,,0.70,Wunderground v.1.15,2013-01-14 01:15:00,
2013-01-13 20:20:00,27.8,26.0,30.14,NW,322,14.0,14.0,93,0.00,,,0.70,Wunderground v.1.15,2013-01-14 01:20:00,
2013-01-13 20:25:00,27.4,25.9,30.14,NE,42,15.0,15.0,94,0.00,,,0.70,Wunderground v.1.15,2013-01-14 01:25:00,
2013-01-13 20:30:00,27.1,25.6,30.14,NNW,348,13.0,17.0,94,0.00,,,0.70,Wunderground v.1.15,2013-01-14 01:30:00,
2013-01-13 20:35:00,26.7,25.2,30.13,NNW,332,13.0,17.0,94,0.00,,,0.70,Wunderground v.1.15,2013-01-14 01:35:00,
2013-01-13 20:40:00,26.5,25.0,30.13,North,6,13.0,13.0,94,0.00,,,0.70,Wunderground v.1.15,2013-01-14 01:40:00,
2013-01-13 20:45:00,26.4,24.9,30.14,NW,322,11.0,17.0,94,0.00,,,0.70,Wunderground v.1.15,2013-01-14 01:45:00,
2013-01-13 20:55:00,26.1,24.6,30.15,NE,41,14.0,19.0,94,0.00,,,0.70,Wunderground v.1.15,2013-01-14 01:55:00,
2013-01-13 21:05:00,25.8,24.1,30.16,East,80,12.0,17.0,93,0.00,,,0.70,Wunderground v.1.15,2013-01-14 02:05:00,
2013-01-13 21:10:00,25.4,23.4,30.17,NNW,344,13.0,13.0,92,0.00,,,0.70,Wunderground v.1.15,2013-01-14 02:10:00,
2013-01-13 21:15:00,25.1,23.1,30.17,East,86,13.0,16.0,92,0.00,,,0.70,Wunderground v.1.15,2013-01-14 02:15:00,
2013-01-13 21:20:00,24.8,22.5,30.17,NNW,344,12.0,12.0,91,0.00,,,0.70,Wunderground v.1.15,2013-01-14 02:20:00,
2013-01-13 21:25:00,24.5,22.0,30.17,SE,143,13.0,13.0,90,0.00,,,0.70,Wunderground v.1.15,2013-01-14 02:25:00,
2013-01-13 21:30:00,24.1,21.6,30.17,NNW,330,14.0,17.0,90,0.00,,,0.70,Wunderground v.1.15,2013-01-14 02:30:00,
2013-01-13 21:35:00,24.0,21.5,30.18,SSE,161,14.0,17.0,90,0.00,,,0.70,Wunderground v.1.15,2013-01-14 02:35:00,
2013-01-13 21:40:00,24.0,21.8,30.18,West,269,12.0,12.0,91,0.00,,,0.70,Wunderground v.1.15,2013-01-14 02:40:00,
2013-01-13 21:45:00,23.9,21.4,30.18,NNE,32,13.0,14.0,90,0.00,,,0.70,Wunderground v.1.15,2013-01-14 02:45:00,
2013-01-13 21:50:00,23.8,21.0,30.18,NNE,13,11.0,11.0,89,0.00,,,0.70,Wunderground v.1.15,2013-01-14 02:50:00,
2013-01-13 22:00:00,23.4,20.4,30.19,ENE,58,10.0,10.0,88,0.00,,,0.70,Wunderground v.1.15,2013-01-14 03:00:00,
2013-01-13 22:10:00,23.1,20.1,30.19,NW,309,11.0,13.0,88,0.00,,,0.70,Wunderground v.1.15,2013-01-14 03:10:00,
2013-01-13 22:15:00,22.9,20.1,30.19,East,94,14.0,17.0,89,0.00,,,0.70,Wunderground v.1.15,2013-01-14 03:15:00,
2013-01-13 22:20:00,22.9,20.1,30.19,NE,43,12.0,16.0,89,0.00,,,0.70,Wunderground v.1.15,2013-01-14 03:20:00,
2013-01-13 22:25:00,22.9,20.1,30.20,NE,39,10.0,16.0,89,0.00,,,0.70,Wunderground v.1.15,2013-01-14 03:25:00,
2013-01-13 22:30:00,22.7,19.7,30.20,SE,132,10.0,10.0,88,0.00,,,0.70,Wunderground v.1.15,2013-01-14 03:30:00,
2013-01-13 22:40:00,22.4,19.4,30.21,SE,142,11.0,11.0,88,0.00,,,0.70,Wunderground v.1.15,2013-01-14 03:40:00,
2013-01-13 22:45:00,22.3,19.0,30.21,NNE,18,11.0,15.0,87,0.00,,,0.70,Wunderground v.1.15,2013-01-14 03:45:00,
2013-01-13 22:50:00,22.1,18.8,30.21,NE,34,11.0,13.0,87,0.00,,,0.70,Wunderground v.1.15,2013-01-14 03:50:00,
2013-01-13 23:00:00,21.9,18.6,30.22,WNW,298,14.0,15.0,87,0.00,,,0.70,Wunderground v.1.15,2013-01-14 04:00:00,
2013-01-13 23:05:00,21.8,18.8,30.22,NNE,18,14.0,22.0,88,0.00,,,0.70,Wunderground v.1.15,2013-01-14 04:05:00,
2013-01-13 23:15:00,21.5,18.2,30.22,NNW,338,10.0,22.0,87,0.00,,,0.70,Wunderground v.1.15,2013-01-14 04:15:00,
2013-01-13 23:20:00,21.2,17.7,30.22,NNE,27,10.0,22.0,86,0.00,,,0.70,Wunderground v.1.15,2013-01-14 04:20:00,
2013-01-13 23:25:00,21.1,17.6,30.23,ESE,119,10.0,22.0,86,0.00,,,0.70,Wunderground v.1.15,2013-01-14 04:25:00,
2013-01-13 23:30:00,21.1,17.8,30.23,East,98,7.0,7.0,87,0.00,,,0.70,Wunderground v.1.15,2013-01-14 04:30:00,
2013-01-13 23:35:00,21.2,18.2,30.23,East,85,3.0,22.0,88,0.00,,,0.70,Wunderground v.1.15,2013-01-14 04:35:00,
2013-01-13 23:45:00,21.3,18.3,30.24,ESE,105,3.0,3.0,88,0.00,,,0.70,Wunderground v.1.15,2013-01-14 04:45:00,
2013-01-13 23:50:00,21.3,18.3,30.24,NNE,33,2.0,22.0,88,0.00,,,0.70,Wunderground v.1.15,2013-01-14 04:50:00,
2013-01-13 23:55:00,21.2,18.2,30.25,SE,131,3.0,22.0,88,0.00,,,0.70,Wunderground v.1.15,2013-01-14 04:55:00,